Flag for United Arab Emirates Weather past 2 weeks in Umm al-Quwain, Umm al-Quwain, United Arab Emirates

Now
88 °F

Passing clouds.


Feels Like: 100 °F
Forecast: 88 / 98 °F
Wind: 5 mph from South

Location: Sharjah International Airport

Current Time: Sep 21, 2014 at 2:24:59 AM

Latest Report: Sep 21, 2014 at 2:00 AM


Visibility: N/A

Pressure: 29.65 "Hg

Humidity: 70%

Dew point: 77 °F

Location of Umm al-QuwainLocation

Historic Weather in Umm al-Quwain — Graph

°F

Umm al-Quwain temperature yesterday

Maximum temperature yesterday: 104 °F (at 3:00 PM)
Minimum temperature yesterday: 82 °F (at 6:00 AM)
Average temperature yesterday: 92 °F

Past Weeks' High & Low Weather Summary

 TemperatureHumidityPressure
High111 °F (Sep 8, 2:00 PM)89% (Sep 7, 4:00 AM)29.80 "Hg (Sep 7, 4:00 AM)
Low81 °F (Sep 6, 7:00 AM)19% (Sep 9, 1:00 PM)29.50 "Hg (Sep 6, 1:00 AM)
Average93 °F59%29.63 "Hg
* Reported Sep 6 1:00 AM — Sep 21 1:00 AM, Umm al-Quwain, Weather by CustomWeather, © 2014

Note: Actual official high and low records may vary slightly from our data, if they occured in-between our weather recording intervals... More about our weather records

Advertising

Umm al-Quwain weather history for previous 24 hours

 ConditionsComfort  
Time TempWeatherWind HumidityBarometerVisibility
1:00 AM
Sep 21
88 °FPassing clouds.3 mph70%29.65 "HgN/A
12:00 AM90 °FPassing clouds.3 mph63%29.65 "HgN/A
11:00 PM
Sep 20
90 °FPassing clouds.3 mph63%29.68 "HgN/A
10:00 PM91 °FClear.2 mph59%29.68 "Hg10 mi
5:00 PM100 °FPassing clouds.12 mph37%29.62 "HgN/A
4:00 PM100 °FPassing clouds.15 mph37%29.62 "HgN/A
3:00 PM104 °FPassing clouds.15 mph31%29.62 "HgN/A
2:00 PM102 °FPassing clouds.14 mph37%29.65 "HgN/A
1:00 PM102 °FPassing clouds.15 mph33%29.68 "HgN/A
12:00 PM102 °FPassing clouds.12 mph35%29.68 "HgN/A
11:00 AM99 °FPassing clouds.6 mph47%29.71 "HgN/A
10:00 AM97 °FSunny.2 mph56%29.74 "Hg10 mi
9:00 AM91 °FClear.7 mph67%29.74 "Hg5 mi
8:00 AM86 °FHaze.8 mph79%29.71 "Hg2 mi
7:00 AM82 °FHaze.6 mph84%29.71 "Hg1 mi
6:00 AM82 °FClear.6 mph84%29.71 "Hg4 mi
5:00 AM84 °FClear.3 mph79%29.68 "Hg5 mi
4:00 AM84 °FClear.6 mph84%29.68 "Hg5 mi
3:00 AM86 °FClear.3 mph79%29.68 "Hg5 mi
2:00 AM86 °FClear.6 mph79%29.68 "Hg5 mi
Weather by CustomWeather, © 2014

See weather overviewHow to use our weather pages